Powrót do katalogu

N-1 DEB

AktywnyLEO
NORAD 14569·DEBRIS·🇯🇵 Japan

Wystrzelony Sep 3, 1982 z Tanegashima Space Center

Loading…

Następne Przeloty (najbliższe 24 godziny)

TLE

ŚwieżeSource: Space-Track

Epoka: Sep 14, 2026, 10:37 UTC

1 14569U 82087D   26257.44275358 -.00000108  00000-0  74168-5 0  9991
2 14569  44.8433  44.6398 0122681 312.6627  81.1114 13.55861829216535

Śledź N-1 DEB w czasie rzeczywistym z AllMySat

Download on the App Store